Regional Weather Roundup
Issued by NWS Memphis, TN

Home | Current Version | Previous Version | Text Only | Print | Product List | Glossary On
Versions: 1 2 3 4 5 6 7 8 9 10 11 12 13 14 15 16 17 18 19 20 21 22 23 24 25 26 27 28 29 30 31 32 33 34 35 36 37 38 39 40 41 42 43 44 45 46 47 48 49 50
000
ASUS44 KMEG 170110
RWRMEG
MEMPHIS CWA HOURLY WEATHER ROUNDUP
NATIONAL WEATHER SERVICE MEMPHIS TN
700 PM CST SAT DEC 16 2017

...WEST TENNESSEE...

CITY           SKY/WX    TMP DP  RH WIND       PRES   REMARKS
MEMPHIS INTL   CLOUDY    46  31  55 S6        30.18R
NWS MEMPHIS      N/A     48 N/A N/A MISG        N/A
JACKSON        PTCLDY    45  31  58 S5        30.18S
COVINGTON      CLEAR     43  32  65 CALM      30.17S
SOMERVILLE     CLEAR     46  30  53 CALM      30.16S
BOLIVAR        CLEAR     46  30  53 SE6       30.18R
LEXINGTON      CLEAR     46  30  53 S3        30.19S
SELMER         PTCLDY    46  30  53 S6        30.19R
SAVANNAH       CLEAR     39  32  75 S3        30.20R
DYERSBURG      CLOUDY    46  30  53 CALM        N/A
UNION CITY     CLEAR     45  30  57 S9        30.16R
PARIS          PTCLDY    45  30  57 S8        30.16R
HUNTINGDON     CLEAR     46  32  57 S7        30.17R


...EASTERN ARKANSAS...

CITY           SKY/WX    TMP DP  RH WIND       PRES   REMARKS
JONESBORO      CLOUDY    45  32  60 S7        30.16R
WEST MEMPHIS   CLOUDY    44  33  65 S7        30.17R
BATESVILLE     PTCLDY    48  28  46 S7        30.13R
NEWPORT        MOCLDY    43  33  68 S6        30.16R
WALNUT RIDGE   CLOUDY    43  31  62 S8        30.13R
BLYTHEVILLE    CLOUDY    48  33  56 S9        30.17R
SEARCY         CLOUDY    47  33  58 SE6       30.14S
STUTTGART      CLOUDY    49  35  58 S9        30.15S
PINE BLUFF     LGT RAIN  50  34  54 SE7       30.16R
MONTICELLO     CLOUDY    50  34  54 S3        30.18R


...NORTH MISSISSIPPI...

CITY           SKY/WX    TMP DP  RH WIND       PRES   REMARKS
TUPELO         PTCLDY    42  29  59 SE6       30.21R
OXFORD         PTCLDY    43  30  61 SE8       30.21R
BATESVILLE     PTCLDY    40  30  68 CALM      30.20S
OLIVE BRANCH   PTCLDY    45  27  49 CALM      30.17R
TUNICA           N/A    N/A N/A N/A S6        30.19R
CLARKSDALE     CLEAR     46  34  61 S6        30.18F
CORINTH        PTCLDY    45  30  57 S6        30.21R
GREENWOOD      CLOUDY    47  32  56 SE6       30.19R
COLUMBUS       PTCLDY    38  30  74 CALM      30.23R
STARKVILLE     PTCLDY    41  32  70 SE6       30.24R
GOLDEN TRIANGL PTCLDY    45  28  51 S8        30.23R


...SOUTHEAST MISSOURI...

CITY           SKY/WX    TMP DP  RH WIND       PRES   REMARKS
KENNETT        CLOUDY    43  32  65 S6        30.14R
MALDEN         PTCLDY    45  32  61 SW7       30.15R
WEST PLAINS    CLOUDY    47  27  45 S7        30.08R
POPLAR BLUFF   PTCLDY    44  31  60 S9        30.13R
CAPE GIRARDEAU CLOUDY    46  30  53 S12       30.13R


...NORTHWEST ALABAMA...

CITY           SKY/WX    TMP DP  RH WIND       PRES   REMARKS
MUSCLE SHOALS  CLOUDY    41  28  60 S6        30.23R


...MIDDLE TENNESSEE...

CITY           SKY/WX    TMP DP  RH WIND       PRES   REMARKS
NASHVILLE      CLOUDY    43  30  60 S3        30.21R
CLARKSVILLE    CLOUDY    44  27  51 S5        30.18R
COLUMBIA       CLEAR     45  30  57 CALM      30.19R


...WESTERN KENTUCKY...

CITY           SKY/WX    TMP DP  RH WIND       PRES   REMARKS
PADUCAH        CLOUDY    46  29  51 VRB3      30.14R
FORT CAMPBELL  CLOUDY    46  28  48 S7        30.17R


...CENTRAL ARKANSAS...

CITY           SKY/WX    TMP DP  RH WIND       PRES   REMARKS
LITTLE ROCK    CLOUDY    47  31  53 S6        30.14R


SKY/WX REPORTED AS FAIR MEANS FEW OR NO CLOUDS BELOW
12 THOUSAND FEET.





USA.gov is the U.S. government's official web portal to all federal, state and local government web resources and services.